User: anonymous   Login
Location: ????????
(37.9452°N, 23.1472°E)
Time: 12:56:31
(UTC+00:00)
Language:

Meteor PRIRODA - Orbit

View from above orbital plane
View from above orbital plane
View from above satellite
View from above satellite

Ground track
Ground track

The orbit data is extracted from the following two-line orbital elements,

1 12585U 81065A   24172.09476605  .00012643  00000-0  32031-3 0  9992
2 12585  97.5442 201.3512 0011332  70.6487 289.5983 15.39802837352189
Epoch (UTC): 20 June 2024 02:16:27
Eccentricity: 0.0011332
inclination: 97.5442°
perigee height: 439 km
apogee height: 454 km
right ascension of ascending node: 201.3512°
argument of perigee: 70.6487°
revolutions per day: 15.39802837
mean anomaly at epoch: 289.5983°
orbit number at epoch: 35218

The dashed part of the orbit path shows where the satellite is in the earth's shadow,  

DLR